Location: Camaret
(48.2753°N, 4.5961°W)
Time: 01:25:17
(UTC+00:00)

Cosmos 44 Rocket - Pass Details

Date: 29 October 2020
Orbit: 642 x 748 km, 65.1° (Epoch: 26 November)

Event Time Altitude Azimuth Distance (km) Brightness Sun altitude
Rises 18:12:04 0° 178° (S) 2,979 6.6 -11.9°
Reaches altitude 10° 18:14:43 10° 164° (SSE) 2,088 5.7 -12.3°
Maximum altitude 18:18:25 23° 112° (ESE) 1,435 4.4 -12.9°
Enters shadow 18:19:57 20° 85° (E) 1,582 4.5 -13.2°
